GOES 16

Last updated on Fri Apr 25 2025 00:02:18 GMT+0000 (Coordinated Universal Time)

1 41866U 16071A 25114.15769859 -.00000201 00000+0 00000+0 0 9995 2 41866 0.0567 277.5210 0000859 186.4677 83.0997 1.00129931 30892
UTC large
Height (km)
Speed (km/s)
/
Latitude / Longitude
Inclination (degrees)
Orbital Period (minutes)
Azimuth
Elevation
Range (km)
Doppler Factor

Next 0 passes for location: London (51.5072 / 0.1276)

Sorry there are no passes over London.